Погода в Семёновке

Украина / Черниговская область     52°10′40″N   32°34′39″E
темп.,
°C
ветер,
м/с
пор.,
м/с
влажн.,
%
обл.,
%
осадки,
мм/ч
давл.,
гПа
погр.,
м
4 марта, чт
чт423:00−1зюз49880 0.0 1019231
02:00−1зюз49870 0.0 1017248
05:00−4юз511900 0.0 1014242
08:00−2юз612931 0.0 1011354
11:00+1зюз5910024 0.0 1009451
14:00+2зюз51010056 0.0 1006478
17:00+2з41199100 0.0 1005377
20:00+1зсз41195100 0.1 1005469
5 марта, пт
пт523:00−1зсз499299 0.0 1007331
02:00−2зсз499596 0.0 1008324
05:00−3ссз239375 0.0 101055
08:00−3ссз359165 0.0 1011224
11:00−1ссз348075 0.0 1013496
14:00−1ссз347487 0.0 1013757
17:00−2сз2380100 0.0 101474
20:00−3зсз2281100 0.0 101627
6 марта, сб
сб623:00−3сз3884100 0.0 1017293
02:00−5сз4108193 0.0 1019456
05:00−6сз410810 0.0 1019400
08:00−5сз59750 0.0 1020567
11:00−3сз576363 0.0 10211039
14:00−2сз575954 0.0 10211333
17:00−3сз37690 0.0 1021334
20:00−5зсз35760 0.0 1023135
7 марта, вс
вс723:00−5зюз48795 0.0 1022239
02:00−5зюз612762 0.0 1020392
05:00−4юз7156856 0.0 1017614
08:00−3юз9176978 0.0 1013982
11:00−1зюз111774100 0.0 10091279
14:00+1з101674100 0.1 10091399
17:000зсз61192100 1.0 1008806
20:00−1зюз41292100 3.8 1007828
8 марта, пн
пн823:00−1з10178899 0.3 10051152
02:00−3зсз6137499 0.6 1006894
05:00−4зсз7147646 0.0 1007897
08:00−5зсз7117848 0.0 10101066
11:00−4сз577398 0.1 10111067
14:00−3сз457199 0.1 10121078
17:00−4сз2382100 0.1 1012339
20:00−5с1190100 0.1 101483